Weather in Polyany

Russia / Saint-Petersburg and Leningrad Oblast     60°19′07″N   29°15′30″E
temp.,
°C
wind,
m/s
gust,
m/s
humid.,
%
clouds,
%
prec.,
mm/h
press.,
hPa
HPBL,
m
12 april, mon
mon1200:00+3ese3864100 0.0 1028150
03:00+3ese41092100 1.1 1027327
06:00+4ese6139592 1.8 1025276
09:00+7se51288100 1.8 1024288
12:00+12sse51464100 0.0 1023582
15:00+13sse51261100 0.0 1022834
18:00+12sse41164100 0.0 1021482
21:00+8se3107474 0.0 1021190
13 april, tue
tue1300:00+6se388250 0.0 1019151
03:00+6se398490 0.0 1018185
06:00+5sse278752 0.0 1018140
09:00+7s2580100 0.0 1019201
12:00+8wsw357881 0.0 1019385
15:00+6w4674100 0.0 1020476
18:00+4w3771100 0.0 1021343
21:00+3wsw3873100 0.1 1021276
14 april, wed
wed1400:00+3wsw2670100 0.1 1021225
03:00+2w2676100 0.2 1020231
06:00+2w1580100 0.1 1020230
09:00+3wnw2474100 0.1 1019331
12:00+5w3465100 0.0 1020688
15:00+6w446182 0.0 1020866
18:00+6w346265 0.0 1021660
21:00+2wnw258045 0.0 1022104
15 april, thu
thu1500:00+2n387988 0.0 1023210
03:00+1n388560 0.0 1025191
06:000nne368997 0.0 1025150
09:00+4nne367354 0.0 1027405
12:00+7ne355672 0.0 10271162
15:00+8ne454638 0.0 10271334
18:00+8ne46460 0.0 10271119
21:00+3ne27650 0.0 1028137
16 april, fri
fri1600:00+2nne38710 0.0 1029178
03:00+1ne39745 0.0 1030172
06:000ne38805 0.0 1030162
09:00+5ne48595 0.0 1031469
12:00+8ene47459 0.0 1032975
15:00+9ene584361 0.0 10321037
18:00+9ne59535 0.0 1033938
21:00+6ne411680 0.0 1034331